NEA658 MKJP-KBOS

Flight info

Callsign NEA658
Flight time N/A
Altitude 34000
Route LEXUV5 RADOK UT172 BEMOL UL417 NEFTU DCT KALDA/N0453F350 DCT WHITE DCT JFK ROBUC3
Aircraft A21N/M-SDE3FGHIRWY/LB1

Departure

Time 2026-04-27 00:30
Airport Norman Manley International Airport (MKJP)

Arrival

Time N/A
Airport Boston Logan International Airport (KBOS)
Time Latitude Longitude Altitude Speed Heading
2026-04-27 00:14 17.93670 -76.78035 34 ft 0 kts 110°
2026-04-27 00:21 17.93670 -76.78036 34 ft 0 kts 110°
2026-04-27 00:21 17.93673 -76.78045 34 ft 2 kts 110°
2026-04-27 00:21 17.93678 -76.78059 33 ft 2 kts 110°
2026-04-27 00:21 17.93683 -76.78075 32 ft 2 kts 110°
2026-04-27 00:22 17.93688 -76.78088 31 ft 1 kts 142°
2026-04-27 00:22 17.93702 -76.78091 30 ft 2 kts 201°
2026-04-27 00:22 17.93714 -76.78084 30 ft 1 kts 204°
2026-04-27 00:22 17.93718 -76.78082 30 ft 0 kts 201°
2026-04-27 00:24 17.93717 -76.78082 30 ft 0 kts 200°
2026-04-27 00:25 17.93678 -76.78099 30 ft 11 kts 202°
2026-04-27 00:25 17.93599 -76.78133 32 ft 12 kts 202°
2026-04-27 00:25 17.93524 -76.78173 32 ft 11 kts 237°
2026-04-27 00:25 17.93539 -76.78258 32 ft 14 kts 292°
2026-04-27 00:26 17.93583 -76.78371 32 ft 18 kts 292°
2026-04-27 00:26 17.93630 -76.78495 32 ft 18 kts 291°
2026-04-27 00:26 17.93676 -76.78615 32 ft 17 kts 292°
2026-04-27 00:26 17.93722 -76.78732 33 ft 16 kts 292°
2026-04-27 00:27 17.93764 -76.78840 34 ft 16 kts 291°
2026-04-27 00:27 17.93812 -76.78964 34 ft 19 kts 292°
2026-04-27 00:27 17.93861 -76.79092 35 ft 18 kts 292°
2026-04-27 00:27 17.93909 -76.79213 35 ft 17 kts 292°
2026-04-27 00:28 17.93953 -76.79330 35 ft 17 kts 291°
2026-04-27 00:28 17.93998 -76.79445 35 ft 16 kts 292°
2026-04-27 00:28 17.94041 -76.79557 34 ft 16 kts 291°
2026-04-27 00:28 17.94083 -76.79671 34 ft 16 kts 285°
2026-04-27 00:29 17.94103 -76.79787 34 ft 16 kts 278°
2026-04-27 00:29 17.94089 -76.79896 34 ft 15 kts 223°
2026-04-27 00:29 17.94011 -76.79894 33 ft 13 kts 125°
2026-04-27 00:29 17.93915 -76.79654 34 ft 71 kts 111°
2026-04-27 00:30 17.93636 -76.78922 34 ft 139 kts 113°
2026-04-27 00:30 17.93213 -76.77822 158 ft 178 kts 112°
2026-04-27 00:30 17.92732 -76.76627 735 ft 183 kts 113°
2026-04-27 00:30 17.92222 -76.75399 1419 ft 187 kts 120°
2026-04-27 00:31 17.91263 -76.74507 2075 ft 190 kts 156°
2026-04-27 00:31 17.89929 -76.74440 2441 ft 206 kts 196°
2026-04-27 00:31 17.88565 -76.75111 2782 ft 224 kts 208°
2026-04-27 00:31 17.87250 -76.75883 3067 ft 244 kts 208°
2026-04-27 00:32 17.86003 -76.76575 3404 ft 258 kts 206°
2026-04-27 00:32 17.84350 -76.77393 4057 ft 266 kts 203°
2026-04-27 00:32 17.82735 -76.78347 4802 ft 269 kts 223°
2026-04-27 00:32 17.81782 -76.79973 5485 ft 271 kts 257°
2026-04-27 00:33 17.81834 -76.81947 6034 ft 278 kts 289°
2026-04-27 00:33 17.82609 -76.83794 6697 ft 281 kts 297°
2026-04-27 00:33 17.83470 -76.85659 7353 ft 285 kts 296°
2026-04-27 00:33 17.84298 -76.87557 8037 ft 288 kts 296°
2026-04-27 00:34 17.85442 -76.89240 8632 ft 289 kts 322°
2026-04-27 00:34 17.87236 -76.90166 9250 ft 289 kts 349°
2026-04-27 00:34 17.89225 -76.90244 9884 ft 289 kts
2026-04-27 00:34 17.91244 -76.90152 10421 ft 295 kts
2026-04-27 00:35 17.93352 -76.90076 10703 ft 310 kts
2026-04-27 00:35 17.95588 -76.90008 10976 ft 325 kts
2026-04-27 00:35 17.97902 -76.89945 11246 ft 340 kts
2026-04-27 00:35 18.00299 -76.89883 11530 ft 353 kts
2026-04-27 00:36 18.02791 -76.89819 12015 ft 359 kts
2026-04-27 00:36 18.05321 -76.89756 12636 ft 360 kts
2026-04-27 00:36 18.07842 -76.89693 13192 ft 363 kts
2026-04-27 00:36 18.10394 -76.89629 13731 ft 366 kts
2026-04-27 00:37 18.12935 -76.89566 14217 ft 370 kts
2026-04-27 00:37 18.15521 -76.89502 14708 ft 373 kts
2026-04-27 00:37 18.18157 -76.89436 15204 ft 376 kts
2026-04-27 00:37 18.20794 -76.89373 15661 ft 379 kts
2026-04-27 00:38 18.23432 -76.89308 16118 ft 382 kts
2026-04-27 00:38 18.26090 -76.89243 16565 ft 385 kts
2026-04-27 00:38 18.28772 -76.89175 16993 ft 387 kts
2026-04-27 00:38 18.31512 -76.89108 17423 ft 390 kts
2026-04-27 00:39 18.34211 -76.89040 17845 ft 392 kts
2026-04-27 00:39 18.36975 -76.88970 18281 ft 395 kts 360°
2026-04-27 00:39 18.39712 -76.88917 18713 ft 396 kts 358°
2026-04-27 00:39 18.42493 -76.89049 19134 ft 398 kts 353°
2026-04-27 00:40 18.45249 -76.89417 19534 ft 399 kts 348°
2026-04-27 00:40 18.47975 -76.89978 19944 ft 401 kts 346°
2026-04-27 00:40 18.50723 -76.90589 20372 ft 403 kts 346°
2026-04-27 00:40 18.53472 -76.91209 20800 ft 404 kts 345°
2026-04-27 00:41 18.56231 -76.91832 21208 ft 406 kts 345°
2026-04-27 00:41 18.59012 -76.92455 21628 ft 408 kts 345°
2026-04-27 00:41 18.61794 -76.93079 22046 ft 409 kts 345°
2026-04-27 00:41 18.64587 -76.93704 22440 ft 411 kts 345°
2026-04-27 00:42 18.67411 -76.94337 22810 ft 413 kts 345°
2026-04-27 00:42 18.70231 -76.94967 23153 ft 416 kts 345°
2026-04-27 00:42 18.73062 -76.95599 23478 ft 419 kts 345°
2026-04-27 00:42 18.75940 -76.96243 23806 ft 421 kts 344°
2026-04-27 00:43 18.78813 -76.96886 24129 ft 424 kts 344°
2026-04-27 00:43 18.81689 -76.97533 24436 ft 426 kts 344°
2026-04-27 00:43 18.84635 -76.98195 24743 ft 429 kts 344°
2026-04-27 00:43 18.87551 -76.98850 25050 ft 431 kts 344°
2026-04-27 00:44 18.90471 -76.99506 25343 ft 433 kts 344°
2026-04-27 00:44 18.93438 -77.00172 25632 ft 435 kts 343°
2026-04-27 00:44 18.96440 -77.00846 25921 ft 438 kts 343°
2026-04-27 00:44 18.99430 -77.01520 26181 ft 440 kts 343°
2026-04-27 00:45 19.02425 -77.02194 26439 ft 443 kts 343°
2026-04-27 00:45 19.05441 -77.02872 26693 ft 445 kts 343°
2026-04-27 00:45 19.08478 -77.03555 26958 ft 447 kts 343°
2026-04-27 00:45 19.11550 -77.04247 27205 ft 449 kts 343°
2026-04-27 00:46 19.14626 -77.04939 27436 ft 451 kts 343°
2026-04-27 00:46 19.17689 -77.05630 27663 ft 453 kts 343°
2026-04-27 00:46 19.20820 -77.06336 27899 ft 455 kts 343°
2026-04-27 00:46 19.23892 -77.07029 28143 ft 456 kts 343°
2026-04-27 00:47 19.27021 -77.07734 28428 ft 457 kts 343°
2026-04-27 00:47 19.30129 -77.08434 28723 ft 456 kts 342°
2026-04-27 00:47 19.33257 -77.09148 29053 ft 455 kts 341°
2026-04-27 00:47 19.36307 -77.09965 29389 ft 452 kts 339°
2026-04-27 00:48 19.39333 -77.10837 29702 ft 451 kts 339°
2026-04-27 00:48 19.42385 -77.11727 30021 ft 450 kts 339°
2026-04-27 00:48 19.45397 -77.12606 30332 ft 449 kts 339°
2026-04-27 00:48 19.48409 -77.13485 30615 ft 449 kts 339°
2026-04-27 00:49 19.51414 -77.14360 30904 ft 448 kts 339°
2026-04-27 00:49 19.54451 -77.15244 31189 ft 447 kts 339°
2026-04-27 00:49 19.57461 -77.16119 31461 ft 447 kts 339°
2026-04-27 00:49 19.60430 -77.16983 31736 ft 446 kts 339°
2026-04-27 00:50 19.63422 -77.17854 32010 ft 445 kts 339°
2026-04-27 00:50 19.69410 -77.19599 32466 ft 444 kts 339°
2026-04-27 00:50 19.72387 -77.20467 32643 ft 445 kts 339°
2026-04-27 00:51 19.75383 -77.21342 32818 ft 445 kts 339°
2026-04-27 00:51 19.78381 -77.22216 32999 ft 445 kts 339°
2026-04-27 00:51 19.81370 -77.23086 33196 ft 446 kts 339°
2026-04-27 00:51 19.84395 -77.23969 33387 ft 446 kts 339°
2026-04-27 00:52 19.87383 -77.24842 33546 ft 446 kts 339°
2026-04-27 00:52 19.90360 -77.25713 33696 ft 447 kts 339°
2026-04-27 00:52 19.93387 -77.26599 33865 ft 447 kts 339°
2026-04-27 00:52 19.96396 -77.27480 33998 ft 448 kts 339°
2026-04-27 00:53 19.99388 -77.28355 33998 ft 447 kts 339°
2026-04-27 00:53 20.05422 -77.30120 34002 ft 447 kts 339°
2026-04-27 00:54 20.11404 -77.31871 33992 ft 446 kts 339°
2026-04-27 00:54 20.17394 -77.33627 33986 ft 446 kts 339°
2026-04-27 00:55 20.23406 -77.35390 33975 ft 446 kts 339°
2026-04-27 00:55 20.29424 -77.37157 33969 ft 446 kts 339°
2026-04-27 00:56 20.35426 -77.38919 33965 ft 446 kts 339°
2026-04-27 00:56 20.41395 -77.40675 33966 ft 446 kts 339°
2026-04-27 00:57 20.47381 -77.42391 33963 ft 447 kts 340°
2026-04-27 00:57 20.53592 -77.43577 33964 ft 453 kts 347°
2026-04-27 00:58 20.59924 -77.44016 33961 ft 459 kts 353°
2026-04-27 00:58 20.66333 -77.43705 33964 ft 461 kts 358°
2026-04-27 00:59 20.72728 -77.43126 33963 ft 461 kts 359°
2026-04-27 00:59 20.79142 -77.42535 33962 ft 461 kts 359°
2026-04-27 01:00 20.85516 -77.41953 33963 ft 460 kts 359°
2026-04-27 01:00 20.91925 -77.41373 33963 ft 460 kts 358°
2026-04-27 01:01 20.98340 -77.40791 33964 ft 460 kts 359°
2026-04-27 01:01 21.04710 -77.40214 33965 ft 460 kts 358°
2026-04-27 01:02 21.11147 -77.39630 33968 ft 460 kts 358°
2026-04-27 01:02 21.17505 -77.39053 33972 ft 460 kts 358°
2026-04-27 01:03 21.23930 -77.38467 33979 ft 460 kts 358°
2026-04-27 01:03 21.30319 -77.37887 33978 ft 460 kts 358°
2026-04-27 01:04 21.36719 -77.37304 33984 ft 460 kts 358°
2026-04-27 01:04 21.43100 -77.36722 33980 ft 459 kts 359°
2026-04-27 01:05 21.49451 -77.36143 33981 ft 459 kts 359°
2026-04-27 01:05 21.55805 -77.35564 33984 ft 459 kts 359°
2026-04-27 01:06 21.62183 -77.34981 33977 ft 459 kts 359°
2026-04-27 01:06 21.68556 -77.34398 33979 ft 459 kts 358°
2026-04-27 01:07 21.74943 -77.33814 33981 ft 459 kts 359°
2026-04-27 01:07 21.81327 -77.33227 33981 ft 458 kts 359°
2026-04-27 01:08 21.87692 -77.32644 33976 ft 458 kts 359°
2026-04-27 01:08 21.94048 -77.32060 33980 ft 458 kts 359°
2026-04-27 01:09 22.00398 -77.31478 33980 ft 458 kts 359°
2026-04-27 01:09 22.06744 -77.30894 33976 ft 458 kts 359°
2026-04-27 01:10 22.13121 -77.30310 33981 ft 458 kts 359°
2026-04-27 01:10 22.19456 -77.29727 33982 ft 457 kts 359°
2026-04-27 01:11 22.25820 -77.29138 33985 ft 457 kts 359°
2026-04-27 01:11 22.32177 -77.28553 33980 ft 457 kts 359°
2026-04-27 01:12 22.38528 -77.27967 33974 ft 456 kts 359°
2026-04-27 01:12 22.44851 -77.27381 33988 ft 456 kts 359°
2026-04-27 01:13 22.51199 -77.26794 33990 ft 456 kts 359°
2026-04-27 01:13 22.57506 -77.26210 33985 ft 456 kts 359°
2026-04-27 01:14 22.63860 -77.25622 33995 ft 456 kts
2026-04-27 01:14 22.70180 -77.25035 33982 ft 456 kts 360°
2026-04-27 01:15 22.76511 -77.24447 33977 ft 456 kts
2026-04-27 01:15 22.82842 -77.23859 33977 ft 455 kts
2026-04-27 01:16 22.89161 -77.23270 33983 ft 454 kts
2026-04-27 01:16 22.95438 -77.22687 33981 ft 454 kts
2026-04-27 01:17 23.01750 -77.22097 33979 ft 454 kts
2026-04-27 01:17 23.08112 -77.21502 33976 ft 455 kts
2026-04-27 01:18 23.14432 -77.20911 33978 ft 455 kts
2026-04-27 01:18 23.20732 -77.20322 33978 ft 454 kts
2026-04-27 01:19 23.27052 -77.19731 33982 ft 455 kts
2026-04-27 01:19 23.33360 -77.19139 33977 ft 454 kts
2026-04-27 01:20 23.39673 -77.18548 33976 ft 453 kts
2026-04-27 01:20 23.45942 -77.17960 33984 ft 454 kts
2026-04-27 01:21 23.52253 -77.17368 33981 ft 454 kts
2026-04-27 01:21 23.58546 -77.16775 33980 ft 454 kts
2026-04-27 01:22 23.64855 -77.16181 33980 ft 454 kts
2026-04-27 01:22 23.71151 -77.15587 33983 ft 453 kts 360°
2026-04-27 01:23 23.77422 -77.14998 33974 ft 454 kts
2026-04-27 01:23 23.83742 -77.14401 33981 ft 454 kts
2026-04-27 01:24 23.90061 -77.13804 33981 ft 454 kts
2026-04-27 01:24 23.96368 -77.13207 33979 ft 454 kts
2026-04-27 01:25 24.02656 -77.12611 33980 ft 453 kts 360°
2026-04-27 01:25 24.08935 -77.12016 33979 ft 453 kts
2026-04-27 01:26 24.15232 -77.11420 33979 ft 453 kts 360°
2026-04-27 01:26 24.21512 -77.10825 33981 ft 453 kts
2026-04-27 01:27 24.27798 -77.10228 33979 ft 453 kts
2026-04-27 01:27 24.34105 -77.09628 33980 ft 453 kts
2026-04-27 01:28 24.40374 -77.09031 33977 ft 453 kts
2026-04-27 01:28 24.46629 -77.08434 33978 ft 452 kts
2026-04-27 01:29 24.52932 -77.07834 33982 ft 452 kts
2026-04-27 01:29 24.59214 -77.07234 33977 ft 452 kts
2026-04-27 01:30 24.65491 -77.06632 33981 ft 452 kts
2026-04-27 01:30 24.71733 -77.06036 33980 ft 452 kts
2026-04-27 01:31 24.78015 -77.05434 33980 ft 452 kts
2026-04-27 01:31 24.84291 -77.04834 33981 ft 452 kts
2026-04-27 01:32 24.90562 -77.04233 33991 ft 451 kts
2026-04-27 01:32 24.96836 -77.03629 34000 ft 452 kts
2026-04-27 01:33 25.03076 -77.03027 33998 ft 451 kts
2026-04-27 01:33 25.09368 -77.02421 33997 ft 451 kts
2026-04-27 01:34 25.15617 -77.01819 33998 ft 451 kts
2026-04-27 01:34 25.21875 -77.01215 33998 ft 451 kts
2026-04-27 01:35 25.28167 -77.00608 33997 ft 451 kts
2026-04-27 01:35 25.34405 -77.00005 33998 ft 450 kts
2026-04-27 01:36 25.40638 -76.99403 33998 ft 451 kts
2026-04-27 01:36 25.46901 -76.98795 33998 ft 451 kts
2026-04-27 01:37 25.53160 -76.98189 33998 ft 451 kts
2026-04-27 01:37 25.59440 -76.97578 33997 ft 450 kts
2026-04-27 01:38 25.65693 -76.96969 33998 ft 450 kts
2026-04-27 01:38 25.71949 -76.96361 33997 ft 450 kts
2026-04-27 01:39 25.78197 -76.95754 33998 ft 451 kts
2026-04-27 01:39 25.84467 -76.95142 33997 ft 450 kts
2026-04-27 01:40 25.90746 -76.94530 33997 ft 450 kts
2026-04-27 01:40 25.96968 -76.93922 33997 ft 450 kts
2026-04-27 01:41 26.03224 -76.93308 34000 ft 450 kts
2026-04-27 01:41 26.09481 -76.92696 34000 ft 450 kts
2026-04-27 01:42 26.15718 -76.92084 33999 ft 449 kts
2026-04-27 01:42 26.21934 -76.91473 33999 ft 449 kts
2026-04-27 01:43 26.28175 -76.90861 34000 ft 449 kts
2026-04-27 01:43 26.34406 -76.90247 33999 ft 449 kts
2026-04-27 01:44 26.40606 -76.89638 33999 ft 448 kts
2026-04-27 01:44 26.46808 -76.89027 34000 ft 447 kts
2026-04-27 01:45 26.53009 -76.88416 34000 ft 447 kts
2026-04-27 01:45 26.59227 -76.87801 34000 ft 447 kts
2026-04-27 01:46 26.65406 -76.87190 33997 ft 447 kts
2026-04-27 01:46 26.71626 -76.86573 34003 ft 447 kts
2026-04-27 01:47 26.77826 -76.85960 34000 ft 447 kts
2026-04-27 01:47 26.84060 -76.85342 34004 ft 447 kts
2026-04-27 01:48 26.90227 -76.84730 34001 ft 446 kts
2026-04-27 01:48 26.96412 -76.84116 34000 ft 445 kts
2026-04-27 01:49 27.02617 -76.83496 34001 ft 445 kts
2026-04-27 01:49 27.08777 -76.82883 34000 ft 445 kts
2026-04-27 01:50 27.14913 -76.82269 33997 ft 444 kts
2026-04-27 01:50 27.21082 -76.81654 33997 ft 445 kts
2026-04-27 01:51 27.27259 -76.81036 33988 ft 444 kts
2026-04-27 01:51 27.33416 -76.80421 33984 ft 443 kts
2026-04-27 01:52 27.39543 -76.79806 33984 ft 442 kts
2026-04-27 01:52 27.45677 -76.79191 33987 ft 441 kts 360°
2026-04-27 01:53 27.51765 -76.78581 33984 ft 441 kts
2026-04-27 01:53 27.57899 -76.77965 33986 ft 440 kts
2026-04-27 01:54 27.63991 -76.77351 33984 ft 440 kts 360°
2026-04-27 01:54 27.70108 -76.76736 33985 ft 440 kts